TJS-4

Last updated on Tue Sep 16 2025 00:02:50 GMT+0000 (Coordinated Universal Time)

1 44637U 19070A 25258.60112935 -.00000186 00000+0 00000+0 0 9994 2 44637 0.0163 120.3022 0002803 72.3977 102.0060 1.00269122 21717
UTC large
Height (km)
Speed (km/s)
/
Latitude / Longitude
Inclination (degrees)
Orbital Period (minutes)
Azimuth
Elevation
Range (km)
Doppler Factor

Next 0 passes for location: London (51.5072 / 0.1276)

Sorry there are no passes over London.